Location: Unnamed
(47.6264°N, 122.3366°W)
Time: 22:34:26
(UTC-07:00)

ELYUSIUM/LOWER FREE FLYE - Pass Details

Date: 12 August 2020
Orbit: 571 x 589 km, 97.7° (Epoch: 21 September)

Event Time Altitude Azimuth Distance (km) Brightness Sun altitude
Exits shadow 23:10:02 54° 215° (SW) 705 ? -22.0°
Maximum altitude 23:10:40 62° 259° (W) 650 ? -22.0°
Drops below altitude 10° 23:14:44 10° 341° (NNW) 1,900 ? -22.4°
Sets 23:16:56 0° 344° (NNW) 2,807 ? -22.6°
